[Iaude] MPEC V95: 2016 VW3 [a=3.15,e=0.51,i=22.6,H=17.8]

mpec at si.edu mpec at si.edu
Thu Nov 10 13:11:39 EST 2016


M.P.E.C. 2016-V95                                Issued 2016 Nov. 10, 18:08 UT
 
     The Minor Planet Electronic Circulars contain information on unusual
         minor planets and routine data on comets.  They are published
    on behalf of Division F of the International Astronomical Union by the
          Minor Planet Center, Smithsonian Astrophysical Observatory,
                          Cambridge, MA 02138, U.S.A.

             Prepared using the Tamkin Foundation Computer Network

                              MPC at CFA.HARVARD.EDU
            URL http://www.minorplanetcenter.net/    ISSN 1523-6714


                                   2016 VW3
 
Observations:
     K16V03W* C2016 11 06.56603 05 58 29.849+53 46 46.57         19.9 wLEV095F51
     K16V03W  C2016 11 06.57836 05 58 30.867+53 47 10.37         20.0 wLEV095F51
     K16V03W  C2016 11 06.59068 05 58 31.872+53 47 34.12         19.9 wLEV095F51
     K16V03W  C2016 11 06.60301 05 58 32.905+53 47 58.01         20.1 wLEV095F51
     K16V03W  C2016 11 08.49100 06 01 18.64 +54 48 53.0          19.4 RoEV095926
     K16V03W  C2016 11 08.49961 06 01 19.36 +54 49 09.6          19.7 RoEV095926
     K16V03W  C2016 11 08.51084 06 01 20.26 +54 49 30.8          19.6 RoEV095926
     K16V03W KC2016 11 10.27395 06 03 52.43 +55 46 26.1          18.8 RqEV095H36
     K16V03W KC2016 11 10.28585 06 03 53.42 +55 46 49.1          19.0 RqEV095H36
     K16V03W KC2016 11 10.29180 06 03 53.91 +55 47 00.8          19.2 RqEV095H36
     K16V03W  C2016 11 10.50547 06 04 10.80 +55 53 55.4          19.0 RoEV095926
     K16V03W  C2016 11 10.51667 06 04 11.75 +55 54 17.3          19.1 RoEV095926
     K16V03W  C2016 11 10.52568 06 04 12.38 +55 54 34.7          19.1 RoEV095926
 
Observer details:
926 Tenagra II Observatory.  Observers M. Schwartz, P. R. Holvorcem.  Measurer
    M. Schwartz.  0.81-m f/7 Ritchey-Chretien + CCD.
F51 Pan-STARRS 1, Haleakala.  Observers B. Gibson, T. Goggia, S. Kahale,
    A. Schultz, M. Willman.  Measurers K. Chambers, S. Chastel, L. Denneau,
    H. Flewelling, M. Huber, E. Lilly, E. Magnier, R. Wainscoat, C. Waters,
    R. Weryk.  1.8-m Ritchey-Chretien + CCD.
H36 Sandlot Observatory, Scranton.  Observer G. Hug.  0.56-m reflector + CCD.
 
Orbital elements:
2016 VW3
Epoch 2016 July 31.0 TT = JDT 2457600.5                 MPC
M 333.15854              (2000.0)            P               Q
n   0.17641316     Peri.   74.46809     -0.10677007     -0.98257815
a   3.1485848      Node    23.34933     +0.69969939     -0.18295035
e   0.5063249      Incl.   22.57014     +0.70641413     +0.03270080
P   5.59           H   17.8           G   0.15           U   7
Residuals in seconds of arc
161106 F51  0.1+  0.0     161108 926  0.2+  0.1+    161110 926  0.1-  0.5-
161106 F51  0.2+  0.0     161108 926  0.2+  0.2-    161110 926  0.5+  0.0
161106 F51  0.1+  0.0     161110 H36  0.0   0.4+    161110 926  0.1-  0.2+
161106 F51  0.3+  0.2+    161110 H36  0.3+  0.0
161108 926  0.0   0.0     161110 H36  0.5+  0.1+

Ephemeris:
2016 VW3                 a,e,i = 3.15, 0.51, 23                  q = 1.5544
Date    TT    R. A. (2000) Decl.     Delta      r     Elong.  Phase     V
2016 10 11    05 14 53.8 +40 24 43   1.0529  1.7354   115.5    31.3    20.4
...
2016 10 26    05 40 20.3 +47 40 18   0.9168  1.6777   122.7    29.9    20.0
...
2016 11 03    05 53 06.2 +51 52 01   0.8591  1.6506   126.0    29.1    19.8
...
2016 11 09    06 02 03.0 +55 05 14   0.8230  1.6322   128.1    28.5    19.7
2016 11 10    06 03 28.5 +55 37 32   0.8176  1.6293   128.4    28.4    19.7
2016 11 11    06 04 52.8 +56 09 48   0.8124  1.6265   128.7    28.4    19.7
...
2016 11 17    06 12 47.8 +59 21 53   0.7845  1.6104   130.2    28.0    19.5
...
2016 11 25    06 21 33.5 +63 27 48   0.7566  1.5919   131.4    27.7    19.4
...
2016 12 10    06 29 39.8 +69 57 26   0.7304  1.5669   131.4    28.1    19.3

A. U. Tomatic                (C) Copyright 2016 MPC           M.P.E.C. 2016-V95




More information about the Iaude mailing list